This is the latest recevied weather packets stored in our database for station/object KW4UJ. If no packets are shown the sender has not sent any weather packets the latest 10 day(s).
| Time | Temp. | Humidity | Pressure | Rain* | Wind** | Luminosity | Snow |
|---|---|---|---|---|---|---|---|
| 1777473942 | 13.89° C | 78% | 1013.8 hPa | 0 mm | - | 161 W/m² | - |
| 1777473640 | 13.89° C | 79% | 1013.8 hPa | 0 mm | - | 105 W/m² | - |
| 1777473336 | 13.89° C | 78% | 1014 hPa | 0 mm | - | 107 W/m² | - |
| 1777473032 | 13.89° C | 79% | 1014.1 hPa | 0 mm | - | 102 W/m² | - |
| 1777472728 | 13.89° C | 79% | 1014.3 hPa | 0 mm | - | 69 W/m² | - |
| 1777472425 | 13.89° C | 78% | 1014.4 hPa | 0 mm | - | 64 W/m² | - |
| 1777472123 | 13.89° C | 78% | 1014.5 hPa | 0 mm | - | 66 W/m² | - |
| 1777471823 | 13.89° C | 78% | 1014.5 hPa | 0 mm | - | 63 W/m² | - |
| 1777471520 | 13.89° C | 77% | 1014.4 hPa | 0 mm | - | 75 W/m² | - |
| 1777471216 | 13.89° C | 78% | 1014.3 hPa | 0 mm | - | 94 W/m² | - |
| 1777470913 | 13.33° C | 78% | 1014 hPa | 0 mm | - | 98 W/m² | - |
| 1777470610 | 13.33° C | 78% | 1014.2 hPa | 0 mm | - | 70 W/m² | - |
| 1777470306 | 13.33° C | 78% | 1014.2 hPa | 0 mm | - | 75 W/m² | - |
| 1777470003 | 13.33° C | 78% | 1014.4 hPa | 0 mm | - | 57 W/m² | - |
| 1777469698 | 13.33° C | 77% | 1014.3 hPa | 0 mm | - | 57 W/m² | - |
| 1777469395 | 13.33° C | 77% | 1014.4 hPa | 0 mm | - | 111 W/m² | - |
| 1777469095 | 13.33° C | 77% | 1014.2 hPa | 0 mm | - | 66 W/m² | - |
| 1777468790 | 13.33° C | 77% | 1014.1 hPa | 0 mm | - | 113 W/m² | - |
| 1777468486 | 12.78° C | 78% | 1014.1 hPa | 0 mm | - | 104 W/m² | - |
| 1777468183 | 12.78° C | 78% | 1013.9 hPa | 0 mm | - | 107 W/m² | - |
| 1777467879 | 12.78° C | 79% | 1014 hPa | 0 mm | - | 69 W/m² | - |
| 1777467574 | 12.78° C | 78% | 1014.1 hPa | 0 mm | - | 75 W/m² | - |
| 1777467270 | 12.78° C | 79% | 1014.2 hPa | 0 mm | - | 54 W/m² | - |
| 1777466966 | 12.78° C | 79% | 1014.3 hPa | 0 mm | - | 48 W/m² | - |
| 1777466665 | 12.78° C | 79% | 1014.2 hPa | 0 mm | - | 51 W/m² | - |
* Rain latest hour (hover to see other rain measurements)
** Current wind speed in m/s (hover to see current wind gust speed)